Olympia, WA
on Tuesday, February 12, 2013

Tuesday
Previous Day Next Day
Daily Summary
 ActualAverageRecord
Temperature
Mean Temperature °F 41°F  
Max Temperature 51°F 49°F 62°F (1963)
Min Temperature 43°F 33°F 16°F (1949)
Degree Days
Heating Degree Days 18 24  
Month to date heating degree days 273 289  
Since 1 July heating degree days 3311 3340  
Cooling Degree Days 0 0  
Month to date cooling degree days 0 0  
Year to date cooling degree days 0 0  
Moisture
Dew Point 44°F   
Average Humidity 87    
Maximum Humidity 100    
Minimum Humidity 74    
Precipitation
Precipitation 0.04 in 0.19 in 1.59 in (1954)
Month to date precipitation 0.59 2.42  
Year to date precipitation 4.50 10.26  
Wind
Wind Speed 9 mph   
Max Wind Speed 16 mph   
Max Gust Speed 22 mph   
Visibility 8 miles   
Events Rain   

Key: T is trace of precipitation, MM is missing value
Source: NWS Daily Summary
Time(PST)TemperatureDew PointHumidity Pressure Visibility Wind DirectionWind SpeedGust SpeedPrecipitationEvents Conditions
12:09 AM 44.1°F 42.1°F 93% 30.36 in 10.0 miles SSW 6.9 mph - N/A   Overcast
12:22 AM 44.1°F 43.0°F 96% 30.36 in 10.0 miles SSW 6.9 mph - N/A   Overcast
12:54 AM 44.1°F 43.0°F 96% 30.36 in 10.0 miles South 8.1 mph - N/A   Overcast
1:05 AM 44.1°F 43.0°F 96% 30.36 in 9.0 miles South 6.9 mph - N/A   Overcast
1:54 AM 44.1°F 43.0°F 96% 30.36 in 10.0 miles SSW 9.2 mph - N/A   Overcast
2:26 AM 44.1°F 43.0°F 96% 30.36 in 10.0 miles SSW 9.2 mph - N/A   Overcast
2:45 AM 44.1°F 43.0°F 96% 30.36 in 10.0 miles SSW 6.9 mph - N/A   Overcast
2:54 AM 45.0°F 43.0°F 93% 30.37 in 10.0 miles SSW 6.9 mph - N/A   Overcast
3:09 AM 44.1°F 43.0°F 96% 30.36 in 10.0 miles South 8.1 mph - N/A   Overcast
3:28 AM 44.1°F 43.0°F 96% 30.36 in 9.0 miles SSW 6.9 mph - N/A   Overcast
3:54 AM 44.1°F 43.0°F 96% 30.36 in 9.0 miles South 8.1 mph - N/A   Overcast
4:23 AM 44.1°F 43.0°F 96% 30.36 in 9.0 miles South 8.1 mph - N/A   Overcast
4:39 AM 44.1°F 42.1°F 93% 30.35 in 8.0 miles South 9.2 mph - N/A   Overcast
4:54 AM 44.1°F 42.1°F 93% 30.37 in 8.0 miles SSW 8.1 mph - N/A   Overcast
5:04 AM 44.1°F 43.0°F 96% 30.36 in 6.0 miles South 8.1 mph - N/A   Overcast
5:18 AM 44.1°F 43.0°F 96% 30.37 in 6.0 miles South 6.9 mph - N/A   Overcast
5:44 AM 44.1°F 42.1°F 93% 30.36 in 9.0 miles South 9.2 mph - N/A   Overcast
5:54 AM 44.1°F 42.1°F 93% 30.37 in 9.0 miles South 9.2 mph - N/A   Overcast
6:21 AM 44.1°F 42.1°F 93% 30.37 in 9.0 miles South 8.1 mph - N/A   Overcast
6:39 AM 44.1°F 42.1°F 93% 30.37 in 7.0 miles South 8.1 mph - N/A   Overcast
6:47 AM 44.1°F 42.1°F 93% 30.37 in 5.0 miles SSW 9.2 mph - N/A   Overcast
6:54 AM 44.1°F 42.1°F 93% 30.38 in 5.0 miles SSW 9.2 mph - N/A   Overcast
7:45 AM 44.1°F 43.0°F 96% 30.39 in 7.0 miles SSW 5.8 mph - N/A   Overcast
7:54 AM 44.1°F 43.0°F 96% 30.40 in 6.0 miles SSW 5.8 mph - N/A   Overcast
8:54 AM 45.0°F 43.0°F 93% 30.41 in 8.0 miles SSW 5.8 mph - N/A   Overcast
9:34 AM 45.0°F 44.1°F 97% 30.40 in 1.8 miles SSW 9.2 mph - N/A   Overcast
9:52 AM 46.4°F 44.6°F 93% 30.41 in 2.5 miles SSW 8.1 mph - N/A   Overcast
9:54 AM 46.0°F 44.1°F 93% 30.41 in 2.5 miles SSW 8.1 mph - N/A   Overcast
10:54 AM 48.0°F 45.0°F 89% 30.42 in 2.0 miles SW 10.4 mph - N/A   Overcast
11:01 AM 48.9°F 46.0°F 90% 30.41 in 8.0 miles SW 9.2 mph - N/A   Overcast
11:54 AM 48.0°F 46.0°F 93% 30.42 in 7.0 miles SSW 10.4 mph - N/A   Overcast
12:54 PM 50.0°F 45.0°F 83% 30.40 in 10.0 miles SW 13.8 mph 19.6 mph N/A   Overcast
1:52 PM 50.0°F 44.6°F 82% 30.39 in 10.0 miles WSW 16.1 mph 21.9 mph N/A   Overcast
1:54 PM 50.0°F 44.1°F 80% 30.39 in 10.0 miles SW 9.2 mph 21.9 mph N/A   Overcast
2:54 PM 50.0°F 43.0°F 77% 30.38 in 10.0 miles SSW 11.5 mph - N/A   Overcast
3:54 PM 50.0°F 44.1°F 80% 30.39 in 10.0 miles WSW 8.1 mph - N/A   Overcast
4:54 PM 50.0°F 44.1°F 80% 30.38 in 10.0 miles SW 8.1 mph - N/A   Overcast
5:36 PM 48.0°F 46.0°F 93% 30.39 in 5.0 miles SW 6.9 mph - N/A   Overcast
5:44 PM 48.0°F 46.0°F 93% 30.39 in 6.0 miles SW 6.9 mph - N/A   Overcast
5:54 PM 48.0°F 46.0°F 93% 30.39 in 10.0 miles SW 8.1 mph - N/A   Overcast
6:49 PM 48.2°F 46.4°F 93% 30.38 in 10.0 miles SSW 8.1 mph - 0.00 in   Overcast
6:54 PM 46.9°F 46.0°F 97% 30.39 in 10.0 miles SSW 9.2 mph - 0.00 in   Overcast
7:54 PM 46.9°F 45.0°F 93% 30.38 in 8.0 miles SSW 9.2 mph - 0.01 in   Overcast
8:14 PM 46.9°F 45.0°F 93% 30.37 in 10.0 miles SSW 10.4 mph - N/A   Overcast
8:54 PM 46.9°F 45.0°F 93% 30.38 in 10.0 miles SSW 6.9 mph - N/A   Overcast
9:03 PM 46.9°F 45.0°F 93% 30.37 in 10.0 miles SW 6.9 mph - N/A   Overcast
9:54 PM 46.9°F 45.0°F 93% 30.38 in 5.0 miles SW 5.8 mph - 0.00 in Rain Light Rain
10:54 PM 46.9°F 45.0°F 93% 30.38 in 10.0 miles SSW 8.1 mph - 0.02 in   Overcast
11:54 PM 46.0°F 45.0°F 96% 30.38 in 8.0 miles SSW 10.4 mph - 0.01 in   Overcast
Moon Phase
Feb. 12 Feb. 17 Feb. 25 Mar. 04 Mar. 11
Sunrise:07:20 AM (PST) Moon Rise:08:06 AM (PST)2/12
Sunset:05:32 PM (PST) Moon Set:08:55 PM (PST)2/12

Copyright © 2014 The Weather Underground, Inc.